Time,TemperatureF,DewpointF,PressureIn,WindDirection,WindDirectionDegrees,WindSpeedMPH,WindSpeedGustMPH,Humidity,HourlyPrecipIn,Conditions,Clouds,dailyrainin,SoftwareType,DateUTC
2013-02-26 00:01:00,29.0,27.0,30.21,South,184,0.0,0.0,94,0.00,,,0.00,,2013-02-26 05:01:00,
2013-02-26 00:12:00,29.0,27.0,30.21,South,185,0.0,0.0,94,0.00,,,0.00,,2013-02-26 05:12:00,
2013-02-26 00:22:00,29.0,27.0,30.21,South,185,0.0,0.0,94,0.00,,,0.00,,2013-02-26 05:22:00,
2013-02-26 00:32:00,29.0,27.0,30.22,South,185,0.0,0.0,94,0.00,,,0.00,,2013-02-26 05:32:00,
2013-02-26 00:43:00,29.0,27.0,30.22,South,185,0.0,0.0,94,0.00,,,0.00,,2013-02-26 05:43:00,
2013-02-26 00:52:00,29.0,27.0,30.22,South,185,0.0,0.0,94,0.00,,,0.00,,2013-02-26 05:52:00,
2013-02-26 01:02:00,29.0,27.0,30.22,South,185,0.0,0.0,94,0.00,,,0.00,,2013-02-26 06:02:00,
2013-02-26 01:11:00,29.0,27.0,30.22,South,185,0.0,0.0,94,0.00,,,0.00,,2013-02-26 06:11:00,
2013-02-26 01:21:00,29.0,28.0,30.23,South,184,0.0,0.0,95,0.00,,,0.00,,2013-02-26 06:21:00,
2013-02-26 01:32:00,29.0,28.0,30.23,South,184,0.0,0.0,95,0.00,,,0.00,,2013-02-26 06:32:00,
2013-02-26 01:42:00,29.0,28.0,30.23,South,184,0.0,0.0,95,0.00,,,0.00,,2013-02-26 06:42:00,
2013-02-26 01:52:00,29.0,28.0,30.22,South,185,0.0,0.0,95,0.00,,,0.00,,2013-02-26 06:52:00,
2013-02-26 02:01:00,29.0,28.0,30.22,South,185,0.0,0.0,95,0.00,,,0.00,,2013-02-26 07:01:00,
2013-02-26 02:11:00,29.0,28.0,30.22,South,185,0.0,0.0,95,0.00,,,0.00,,2013-02-26 07:11:00,
2013-02-26 02:22:00,29.0,27.0,30.23,South,185,0.0,0.0,94,0.00,,,0.00,,2013-02-26 07:22:00,
2013-02-26 02:32:00,29.0,28.0,30.23,South,185,0.0,0.0,95,0.00,,,0.00,,2013-02-26 07:32:00,
2013-02-26 02:42:00,29.0,28.0,30.23,South,185,0.0,0.0,95,0.00,,,0.00,,2013-02-26 07:42:00,
2013-02-26 02:52:00,29.0,28.0,30.23,South,184,0.0,0.0,95,0.00,,,0.00,,2013-02-26 07:52:00,
2013-02-26 03:02:00,29.0,28.0,30.24,South,184,0.0,0.0,95,0.00,,,0.00,,2013-02-26 08:02:00,
2013-02-26 03:11:00,29.0,28.0,30.24,South,184,0.0,0.0,95,0.00,,,0.00,,2013-02-26 08:11:00,
2013-02-26 03:21:00,29.0,28.0,30.24,South,184,0.0,0.0,95,0.00,,,0.00,,2013-02-26 08:21:00,
2013-02-26 03:32:00,29.0,28.0,30.24,South,185,0.0,0.0,95,0.00,,,0.00,,2013-02-26 08:32:00,
2013-02-26 03:42:00,29.0,28.0,30.24,South,185,0.0,0.0,95,0.00,,,0.00,,2013-02-26 08:42:00,
2013-02-26 03:52:00,29.0,28.0,30.25,South,185,0.0,0.0,95,0.00,,,0.00,,2013-02-26 08:52:00,
2013-02-26 04:02:00,29.0,28.0,30.24,South,185,0.0,0.0,95,0.00,,,0.00,,2013-02-26 09:02:00,
2013-02-26 04:11:00,29.0,28.0,30.24,South,185,0.0,0.0,95,0.00,,,0.00,,2013-02-26 09:11:00,
2013-02-26 04:21:00,29.0,28.0,30.24,South,185,0.0,0.0,95,0.00,,,0.00,,2013-02-26 09:21:00,
2013-02-26 04:32:00,29.0,28.0,30.25,South,185,0.0,2.0,95,0.00,,,0.00,,2013-02-26 09:32:00,
2013-02-26 04:43:00,29.0,28.0,30.25,South,185,0.0,2.0,95,0.00,,,0.00,,2013-02-26 09:43:00,
2013-02-26 04:52:00,29.0,28.0,30.25,South,185,0.0,0.0,95,0.00,,,0.00,,2013-02-26 09:52:00,
2013-02-26 05:01:00,29.0,28.0,30.26,South,185,0.0,0.0,95,0.00,,,0.00,,2013-02-26 10:01:00,
2013-02-26 05:11:00,29.0,28.0,30.26,South,185,0.0,0.0,95,0.00,,,0.00,,2013-02-26 10:11:00,
2013-02-26 05:21:00,29.0,28.0,30.27,South,185,0.0,0.0,95,0.00,,,0.00,,2013-02-26 10:21:00,
2013-02-26 05:31:00,29.0,28.0,30.27,South,185,0.0,0.0,95,0.00,,,0.00,,2013-02-26 10:31:00,
2013-02-26 05:42:00,29.0,28.0,30.27,South,185,0.0,0.0,95,0.00,,,0.00,,2013-02-26 10:42:00,
2013-02-26 05:52:00,28.0,27.0,30.27,South,185,0.0,0.0,95,0.00,,,0.00,,2013-02-26 10:52:00,
2013-02-26 06:01:00,28.0,27.0,30.26,South,185,0.0,0.0,95,0.00,,,0.00,,2013-02-26 11:01:00,
2013-02-26 06:12:00,28.0,27.0,30.26,South,185,0.0,0.0,95,0.00,,,0.00,,2013-02-26 11:12:00,
2013-02-26 06:22:00,28.0,27.0,30.26,South,184,0.0,0.0,95,0.00,,,0.00,,2013-02-26 11:22:00,
2013-02-26 06:32:00,28.0,27.0,30.27,South,184,0.0,0.0,95,0.00,,,0.00,,2013-02-26 11:32:00,
2013-02-26 06:42:00,28.0,27.0,30.27,South,184,0.0,0.0,95,0.00,,,0.00,,2013-02-26 11:42:00,
2013-02-26 06:53:00,28.0,27.0,30.28,South,184,0.0,0.0,95,0.00,,,0.00,,2013-02-26 11:53:00,
2013-02-26 07:02:00,28.0,27.0,30.28,South,185,0.0,1.0,95,0.00,,,0.00,,2013-02-26 12:02:00,
2013-02-26 07:11:00,28.0,27.0,30.28,South,185,0.0,1.0,95,0.00,,,0.00,,2013-02-26 12:11:00,
2013-02-26 07:22:00,29.0,28.0,30.28,South,184,0.0,0.0,95,0.00,,,0.00,,2013-02-26 12:22:00,
2013-02-26 07:32:00,29.0,28.0,30.29,South,185,0.0,0.0,95,0.00,,,0.00,,2013-02-26 12:32:00,
2013-02-26 07:42:00,29.0,28.0,30.29,South,185,0.0,0.0,95,0.00,,,0.00,,2013-02-26 12:42:00,
2013-02-26 07:53:00,29.0,28.0,30.29,South,184,0.0,0.0,95,0.00,,,0.00,,2013-02-26 12:53:00,
2013-02-26 08:02:00,29.0,28.0,30.29,South,185,0.0,0.0,95,0.00,,,0.00,,2013-02-26 13:02:00,
2013-02-26 08:11:00,29.0,28.0,30.29,South,185,0.0,0.0,95,0.00,,,0.00,,2013-02-26 13:11:00,
2013-02-26 08:22:00,29.0,28.0,30.29,South,185,0.0,0.0,95,0.00,,,0.00,,2013-02-26 13:22:00,
2013-02-26 08:32:00,30.0,29.0,30.29,South,185,0.0,0.0,95,0.00,,,0.00,,2013-02-26 13:32:00,
2013-02-26 08:42:00,30.0,29.0,30.29,South,185,0.0,0.0,95,0.00,,,0.00,,2013-02-26 13:42:00,
2013-02-26 08:52:00,30.0,29.0,30.29,South,184,0.0,0.0,96,0.00,,,0.00,,2013-02-26 13:52:00,
2013-02-26 09:01:00,31.0,30.0,30.29,South,184,0.0,0.0,96,0.00,,,0.00,,2013-02-26 14:01:00,
2013-02-26 09:11:00,31.0,30.0,30.29,South,184,0.0,0.0,96,0.00,,,0.00,,2013-02-26 14:11:00,
2013-02-26 09:21:00,32.0,31.0,30.30,South,185,1.0,2.0,95,0.00,,,0.00,,2013-02-26 14:21:00,
2013-02-26 09:32:00,32.0,31.0,30.29,South,185,0.0,1.0,95,0.00,,,0.00,,2013-02-26 14:32:00,
2013-02-26 09:42:00,32.0,31.0,30.29,South,185,0.0,1.0,95,0.00,,,0.00,,2013-02-26 14:42:00,
2013-02-26 09:52:00,33.0,32.0,30.29,South,184,0.0,1.0,95,0.00,,,0.00,,2013-02-26 14:52:00,
2013-02-26 10:02:00,34.0,33.0,30.29,South,184,0.0,3.0,95,0.00,,,0.00,,2013-02-26 15:02:00,
2013-02-26 10:11:00,34.0,33.0,30.29,South,184,0.0,3.0,95,0.00,,,0.00,,2013-02-26 15:11:00,
2013-02-26 10:22:00,36.0,34.0,30.28,South,184,1.0,3.0,94,0.01,,,0.01,,2013-02-26 15:22:00,
2013-02-26 10:32:00,40.0,36.0,30.28,South,184,1.0,2.0,86,0.01,,,0.01,,2013-02-26 15:32:00,
2013-02-26 10:42:00,40.0,36.0,30.28,South,184,1.0,2.0,86,0.01,,,0.01,,2013-02-26 15:42:00,
2013-02-26 10:52:00,41.0,34.0,30.27,SSE,149,0.0,3.0,76,0.01,,,0.01,,2013-02-26 15:52:00,
2013-02-26 11:01:00,42.0,33.0,30.26,West,267,6.0,11.0,69,0.01,,,0.01,,2013-02-26 16:01:00,
2013-02-26 11:22:00,41.0,31.0,30.27,SW,233,4.0,8.0,68,0.00,,,0.01,,2013-02-26 16:22:00,
2013-02-26 11:32:00,41.0,32.0,30.27,North,360,1.0,8.0,69,0.00,,,0.01,,2013-02-26 16:32:00,
2013-02-26 11:42:00,41.0,32.0,30.27,North,360,1.0,8.0,69,0.00,,,0.01,,2013-02-26 16:42:00,
2013-02-26 11:52:00,41.0,31.0,30.27,NW,310,1.0,6.0,66,0.00,,,0.01,,2013-02-26 16:52:00,
2013-02-26 12:01:00,40.0,30.0,30.27,SSW,197,4.0,7.0,66,0.00,,,0.01,,2013-02-26 17:01:00,
2013-02-26 12:11:00,40.0,30.0,30.26,SE,142,1.0,4.0,68,0.00,,,0.01,,2013-02-26 17:11:00,
2013-02-26 12:22:00,40.0,30.0,30.26,SE,142,1.0,4.0,68,0.00,,,0.01,,2013-02-26 17:22:00,
2013-02-26 12:32:00,40.0,29.0,30.25,WSW,244,2.0,7.0,65,0.00,,,0.01,,2013-02-26 17:32:00,
2013-02-26 12:42:00,40.0,29.0,30.25,WSW,244,2.0,7.0,65,0.00,,,0.01,,2013-02-26 17:42:00,
2013-02-26 12:52:00,42.0,30.0,30.24,South,177,6.0,9.0,63,0.00,,,0.00,,2013-02-26 17:52:00,
2013-02-26 13:02:00,41.0,29.0,30.25,SSW,199,3.0,8.0,63,0.00,,,0.00,,2013-02-26 18:02:00,
2013-02-26 13:12:00,41.0,29.0,30.25,SSW,199,3.0,8.0,63,0.00,,,0.00,,2013-02-26 18:12:00,
2013-02-26 13:21:00,41.0,29.0,30.25,SSW,211,8.0,13.0,61,0.00,,,0.00,,2013-02-26 18:21:00,
2013-02-26 13:32:00,40.0,28.0,30.25,SSW,192,6.0,11.0,62,0.00,,,0.00,,2013-02-26 18:32:00,
2013-02-26 13:42:00,40.0,28.0,30.25,SSW,192,6.0,11.0,62,0.00,,,0.00,,2013-02-26 18:42:00,
2013-02-26 13:53:00,40.0,29.0,30.25,South,176,5.0,11.0,64,0.00,,,0.00,,2013-02-26 18:53:00,
2013-02-26 14:01:00,40.0,28.0,30.25,SSW,193,6.0,10.0,61,0.00,,,0.00,,2013-02-26 19:01:00,
2013-02-26 14:11:00,40.0,28.0,30.25,SSW,193,6.0,10.0,61,0.00,,,0.00,,2013-02-26 19:11:00,
2013-02-26 14:22:00,40.0,29.0,30.25,South,186,5.0,9.0,65,0.00,,,0.00,,2013-02-26 19:22:00,
2013-02-26 14:32:00,39.0,29.0,30.24,SW,229,7.0,12.0,66,0.00,,,0.00,,2013-02-26 19:32:00,
2013-02-26 14:42:00,39.0,29.0,30.24,SW,229,7.0,12.0,66,0.00,,,0.00,,2013-02-26 19:42:00,
2013-02-26 14:52:00,40.0,29.0,30.23,South,176,6.0,9.0,64,0.00,,,0.00,,2013-02-26 19:52:00,
2013-02-26 15:01:00,40.0,28.0,30.22,South,169,8.0,13.0,61,0.00,,,0.00,,2013-02-26 20:01:00,
2013-02-26 15:11:00,40.0,28.0,30.22,South,169,8.0,13.0,61,0.00,,,0.00,,2013-02-26 20:11:00,
2013-02-26 15:22:00,40.0,28.0,30.21,SSW,199,7.0,12.0,61,0.00,,,0.00,,2013-02-26 20:22:00,
2013-02-26 15:32:00,40.0,28.0,30.21,SSE,157,4.0,14.0,61,0.00,,,0.00,,2013-02-26 20:32:00,
2013-02-26 15:41:00,40.0,28.0,30.21,SSE,157,4.0,14.0,61,0.00,,,0.00,,2013-02-26 20:41:00,
2013-02-26 15:52:00,40.0,28.0,30.21,South,178,6.0,10.0,62,0.00,,,0.00,,2013-02-26 20:52:00,
2013-02-26 16:01:00,39.0,28.0,30.20,SSE,153,4.0,9.0,64,0.00,,,0.00,,2013-02-26 21:01:00,
2013-02-26 16:11:00,39.0,28.0,30.20,SSE,153,4.0,9.0,64,0.00,,,0.00,,2013-02-26 21:11:00,
2013-02-26 16:21:00,39.0,29.0,30.20,South,175,4.0,8.0,66,0.00,,,0.00,,2013-02-26 21:21:00,
2013-02-26 16:31:00,39.0,29.0,30.20,South,180,5.0,7.0,67,0.00,,,0.00,,2013-02-26 21:31:00,
2013-02-26 16:41:00,39.0,29.0,30.20,South,180,5.0,7.0,67,0.00,,,0.00,,2013-02-26 21:41:00,
2013-02-26 16:51:00,38.0,29.0,30.20,SSW,198,8.0,12.0,69,0.00,,,0.00,,2013-02-26 21:51:00,
2013-02-26 17:01:00,38.0,29.0,30.20,South,178,3.0,6.0,71,0.00,,,0.00,,2013-02-26 22:01:00,
2013-02-26 17:11:00,38.0,30.0,30.20,South,173,2.0,7.0,72,0.00,,,0.00,,2013-02-26 22:11:00,
2013-02-26 17:21:00,38.0,30.0,30.20,South,173,2.0,7.0,72,0.00,,,0.00,,2013-02-26 22:21:00,
2013-02-26 17:32:00,37.0,29.0,30.20,South,171,0.0,4.0,73,0.00,,,0.00,,2013-02-26 22:32:00,
2013-02-26 17:42:00,37.0,29.0,30.20,South,171,0.0,4.0,73,0.00,,,0.00,,2013-02-26 22:42:00,
2013-02-26 17:52:00,37.0,30.0,30.20,SE,134,0.0,5.0,75,0.00,,,0.00,,2013-02-26 22:52:00,
2013-02-26 18:01:00,37.0,30.0,30.20,SE,143,1.0,4.0,76,0.00,,,0.00,,2013-02-26 23:01:00,
2013-02-26 18:11:00,37.0,30.0,30.20,SE,143,1.0,4.0,76,0.00,,,0.00,,2013-02-26 23:11:00,
2013-02-26 18:21:00,37.0,30.0,30.21,SE,141,4.0,9.0,76,0.00,,,0.00,,2013-02-26 23:21:00,
2013-02-26 18:32:00,37.0,30.0,30.20,South,188,2.0,8.0,76,0.00,,,0.00,,2013-02-26 23:32:00,
2013-02-26 18:42:00,37.0,30.0,30.20,South,188,2.0,8.0,76,0.00,,,0.00,,2013-02-26 23:42:00,
2013-02-26 18:52:00,37.0,30.0,30.19,South,180,0.0,6.0,77,0.00,,,0.00,,2013-02-26 23:52:00,
2013-02-26 19:01:00,36.0,29.0,30.19,ESE,106,3.0,5.0,77,0.00,,,0.00,,2013-02-27 00:01:00,
2013-02-26 19:11:00,36.0,29.0,30.19,ESE,106,3.0,5.0,77,0.00,,,0.00,,2013-02-27 00:11:00,
2013-02-26 19:22:00,36.0,29.0,30.19,SSW,196,0.0,6.0,77,0.00,,,0.00,,2013-02-27 00:22:00,
2013-02-26 19:32:00,36.0,30.0,30.19,South,181,1.0,6.0,78,0.00,,,0.00,,2013-02-27 00:32:00,
2013-02-26 19:42:00,36.0,30.0,30.19,South,181,1.0,6.0,78,0.00,,,0.00,,2013-02-27 00:42:00,
2013-02-26 19:52:00,36.0,30.0,30.19,South,176,1.0,6.0,78,0.00,,,0.00,,2013-02-27 00:52:00,
2013-02-26 20:01:00,36.0,29.0,30.19,South,184,5.0,12.0,77,0.00,,,0.00,,2013-02-27 01:01:00,
2013-02-26 20:11:00,36.0,29.0,30.19,South,184,5.0,12.0,77,0.00,,,0.00,,2013-02-27 01:11:00,
2013-02-26 20:22:00,36.0,30.0,30.21,South,180,1.0,10.0,78,0.00,,,0.00,,2013-02-27 01:22:00,
2013-02-26 20:32:00,36.0,29.0,30.20,SSE,151,4.0,8.0,77,0.00,,,0.00,,2013-02-27 01:32:00,
2013-02-26 20:42:00,36.0,29.0,30.20,SSE,151,4.0,8.0,77,0.00,,,0.00,,2013-02-27 01:42:00,
2013-02-26 20:52:00,36.0,30.0,30.20,South,182,0.0,6.0,78,0.00,,,0.00,,2013-02-27 01:52:00,
2013-02-26 21:01:00,36.0,30.0,30.19,SSE,166,0.0,6.0,78,0.00,,,0.00,,2013-02-27 02:01:00,
2013-02-26 21:15:00,36.0,30.0,30.19,SSE,166,0.0,6.0,78,0.00,,,0.00,,2013-02-27 02:15:00,
2013-02-26 21:24:00,36.0,30.0,30.19,SSE,163,4.0,11.0,78,0.00,,,0.00,,2013-02-27 02:24:00,
2013-02-26 21:32:00,36.0,30.0,30.18,South,188,2.0,11.0,78,0.00,,,0.00,,2013-02-27 02:32:00,
2013-02-26 21:42:00,36.0,30.0,30.18,South,188,2.0,11.0,78,0.00,,,0.00,,2013-02-27 02:42:00,
2013-02-26 21:52:00,35.0,29.0,30.17,South,175,5.0,8.0,78,0.00,,,0.00,,2013-02-27 02:52:00,
2013-02-26 22:02:00,35.0,29.0,30.17,South,182,6.0,18.0,78,0.00,,,0.00,,2013-02-27 03:02:00,
2013-02-26 22:11:00,35.0,29.0,30.17,South,182,6.0,18.0,78,0.00,,,0.00,,2013-02-27 03:11:00,
2013-02-26 22:22:00,35.0,29.0,30.17,South,178,6.0,14.0,78,0.00,,,0.00,,2013-02-27 03:22:00,
2013-02-26 22:32:00,35.0,29.0,30.17,SSW,205,7.0,12.0,77,0.00,,,0.00,,2013-02-27 03:32:00,
2013-02-26 22:42:00,35.0,29.0,30.17,SSW,205,7.0,12.0,77,0.00,,,0.00,,2013-02-27 03:42:00,
2013-02-26 22:52:00,35.0,28.0,30.16,SSW,192,8.0,18.0,76,0.00,,,0.00,,2013-02-27 03:52:00,
2013-02-26 23:01:00,35.0,28.0,30.16,SSW,194,10.0,16.0,75,0.00,,,0.00,,2013-02-27 04:01:00,
2013-02-26 23:11:00,35.0,28.0,30.16,SSW,194,10.0,16.0,75,0.00,,,0.00,,2013-02-27 04:11:00,
2013-02-26 23:22:00,34.0,27.0,30.15,SSW,208,4.0,11.0,74,0.00,,,0.00,,2013-02-27 04:22:00,
2013-02-26 23:32:00,34.0,27.0,30.14,SSW,196,8.0,14.0,74,0.00,,,0.00,,2013-02-27 04:32:00,
2013-02-26 23:42:00,34.0,27.0,30.14,SSW,196,8.0,14.0,74,0.00,,,0.00,,2013-02-27 04:42:00,
2013-02-26 23:52:00,34.0,27.0,30.13,SSE,167,2.0,13.0,74,0.00,,,0.00,,2013-02-27 04:52:00,